Regional Weather Roundup
Issued by NWS

Home | Current Version | Previous Version | Graphics & Text | Print | Product List | Glossary On
Versions: 1 2 3 4 5 6 7 8 9 10 11 12 13 14 15 16 17 18 19 20 21 22 23 24 25 26 27 28 29 30 31 32 33 34 35 36 37 38 39 40 41 42 43 44 45 46 47 48 49 50
000
ASUS43 KDMX 181107
RWRIA

WEATHER ROUNDUP FOR IOWA
NATIONAL WEATHER SERVICE DES MOINES IA
600 AM CDT SAT APR 18 2015

NOTE: "FAIR" INDICATES FEW OR NO CLOUDS BELOW 12,000 FEET WITH NO
SIGNIFICANT WEATHER AND/OR OBSTRUCTIONS TO VISIBILITY.

* - THESE STATIONS ARE NOT NWS STATIONS...THUS NOT UNDER NWS
QUALITY CONTROL.  THEY ALSO DO NOT REPORT WEATHER SUCH
AS PRECIPITATION OR FOG.

IAZ001>003-012>014-020>022-031>034-043>046-181200-
   NORTHWEST IOWA

CITY           SKY/WX    TMP DP  RH WIND       PRES   REMARKS
CARROLL *      CLOUDY    57  50  77 E7        29.97F
CHEROKEE *     CLOUDY    59  43  55 E12       29.98S
DENISON *      CLOUDY    55  54  94 NE5       29.95F
LE MARS *      CLOUDY    57  39  51 NE7       29.97F
ORANGE CITY *  MOCLDY    55  36  47 E10       29.98S
SHELDON *      MOCLDY    55  32  41 E9        29.98S
SIOUX CITY     LGT RAIN  57  50  77 NW3       29.97F
SPENCER        CLOUDY    55  37  50 E8        30.01F
STORM LAKE *   CLOUDY    55  43  62 E13       29.99S
$$

IAZ055>058-069>071-079>083-090>094-181200-
   SOUTHWEST IOWA

CITY           SKY/WX    TMP DP  RH WIND       PRES   REMARKS
ATLANTIC *     CLOUDY    61  57  88 NE6       29.95S
AUDUBON *      LGT RAIN  59  55  88 E6        29.98S
CLARINDA *     CLOUDY    61  57  88 NE5       29.95S
COUNCIL BLFS * CLOUDY    61  59  94 E6        29.93F
CRESTON *      CLOUDY    59  55  88 E8        29.96S
HARLAN  *      CLOUDY    61  61 100 VRB3      29.98S
LAMONI         CLOUDY    61  54  77 E5        29.95S
RED OAK *      MOCLDY    63  55  77 NE8       29.93F
SHENANDOAH *   PTCLDY    61  55  82 NE8       29.93F
$$

IAZ047>049-059>061-072>074-084-181200-
   CENTRAL IOWA

CITY           SKY/WX    TMP DP  RH WIND       PRES   REMARKS
AMES           LGT RAIN  60  51  72 S6        30.02R
ANKENY *       CLOUDY    59  59 100 NE7       29.98F
CHARITON *     CLOUDY    59  54  82 NE7       29.97S
DES MOINES     CLOUDY    63  56  78 E7        29.97F
GRINNELL*      MOCLDY    61  50  67 E6        29.99S
KNOXVILLE *    MOCLDY    59  50  72 E5        29.97S
MARSHALLTOWN   MOCLDY    56  48  74 CALM      29.99S
PELLA *        CLOUDY    59  54  82 CALM      30.00R
PERRY *        RAIN      59  57  94 SE5       29.99S
$$

IAZ004>006-015-016-023>025-035-036-181200-
   NORTH CENTRAL IOWA

CITY           SKY/WX    TMP DP  RH WIND       PRES   REMARKS
ALGONA *       CLEAR     52  41  66 NE7       30.02S
CLARION *      CLOUDY    55  45  67 E12       30.00S
ESTHERVILLE    MOCLDY    45  36  70 NE9       30.01F
FORT DODGE *   CLOUDY    54  45  71 E8        30.00S
MASON CITY     PTCLDY    47  40  76 E8        30.04S
FOREST CITY *  PTCLDY    52  36  54 E3        30.02F
IOWA FALLS *     N/A     55  45  67 NE3       30.01S
$$

IAZ007>011-017>019-026>030-037>042-050>054-066-181200-
   NORTHEAST IOWA

CITY           SKY/WX    TMP DP  RH WIND       PRES   REMARKS
CEDAR RAPIDS   CLOUDY    54  49  83 NE5       29.99F
CHARLES CITY * CLEAR     54  41  62 NE10      30.03S
CLINTON *      CLEAR     50  45  81 CALM      30.03S
DECORAH *      CLOUDY    52  45  76 CALM      30.04S
DUBUQUE        CLEAR     54  47  77 NE10      30.03S
MONTICELLO *   CLEAR     50  50 100 CALM      30.01S
OELWEIN *      CLEAR     54  45  71 NE10      30.03S
WATERLOO       PTCLDY    51  44  77 E8        30.00F
$$

IAZ064-065-067-068-078-181200-
   EAST CENTRAL IOWA

CITY           SKY/WX    TMP DP  RH WIND       PRES   REMARKS
DAVENPORT      PTCLDY    51  45  79 E6        30.00F
IOWA CITY      CLOUDY    50  48  93 CALM      30.00F
MT. PLEASANT * MOCLDY    55  50  82 S7        29.99S
MUSCATINE *    CLEAR     54  48  82 CALM      30.00S
QUAD CITIES    PTCLDY    52  46  80 CALM      29.99F
$$

IAZ062-063-075>077-085>089-095>099-181200-
   SOUTHEAST IOWA

CITY           SKY/WX    TMP DP  RH WIND       PRES   REMARKS
BURLINGTON     PTCLDY    59  53  80 S3        29.99S
FAIRFIELD *    CLEAR     57  50  77 SE6       29.99S
FORT MADISON * CLEAR     57  54  88 CALM      30.01R
KEOKUK *       CLEAR     57  54  88 E6        29.99S
OSKALOOSA *      N/A     54  50  87 E8        29.99S
CENTERVILLE *  CLEAR     59  55  88 E5        29.98S
OTTUMWA        PTCLDY    55  50  83 SE6       29.98R
WASHINGTON *   CLEAR     55  55 100 E5        30.00R
$$

ABBREVIATIONS USED IN REMARKS
   TC - TEMPERATURES IN CELSIUS
  WCI - WIND CHILL INDEX
   HX - HEAT INDEX
  VSB - VISIBILITY
$$




USA.gov is the U.S. government's official web portal to all federal, state and local government web resources and services.